Location: Bottens
(46.6171°N, 6.6605°E)
Time: 00:29:40
(UTC+00:00)

OE (NEXTSAT) - Pass Details

Date: 20 June 2021
Orbit: 424 x 431 km, 46.0° (Epoch: 25 July)

Event Time Altitude Azimuth Distance (km) Brightness Sun altitude
Rises 02:55:13 0° 277° (W) 2,390 7.7 -6.6°
Reaches altitude 10° 02:57:20 10° 274° (W) 1,521 6.7 -6.4°
Maximum altitude 03:00:45 68° 192° (SSW) 462 4.3 -6.0°
Drops below altitude 10° 03:04:09 10° 108° (ESE) 1,514 7.5 -5.5°
Sets 03:06:16 0° 106° (ESE) 2,377 8.5 -5.3°
